WB0VHB-WX Weather Reports


Display with metric or nautical units.
time (UTC)temp
F
wind
direction
speed
MPH
gust
MPH
rain 1hr
in
rain 24hr
in
rain mn
in
humidity
%
barometer
mb
20260906143603 73 77 3.0 8.0 0.00 0.00 0.00 80 1017.5
20260906142703 72 81 3.0 8.0 0.00 0.00 0.00 80 1017.4
20260906141803 72 80 4.0 8.0 0.00 0.00 0.00 80 1017.2
20260906140903 72 75 4.0 9.0 0.00 0.00 0.00 80 1017.2
20260906140004 72 86 5.0 10.0 0.00 0.00 0.00 80 1017.2
20260906135403 72 88 4.0 9.0 0.00 0.00 0.00 80 1017.2
20260906134524 72 85 4.0 10.0 0.00 0.00 0.00 80 1017.1
20260906133603 72 92 5.0 11.0 0.00 0.00 0.00 80 1017.0
20260906132703 72 86 4.0 10.0 0.00 0.00 0.00 81 1016.9
20260906131804 72 85 4.0 10.0 0.00 0.00 0.00 81 1016.8
20260906130925 72 88 4.0 9.0 0.00 0.00 0.00 81 1016.7
20260906130004 71 85 5.0 11.0 0.00 0.00 0.00 82 1016.5
20260906125403 71 85 4.0 11.0 0.00 0.00 0.00 82 1016.4
20260906124503 71 81 5.0 10.0 0.00 0.00 0.00 82 1016.5
20260906123603 71 70 3.0 8.0 0.00 0.00 0.00 82 1016.6
20260906122703 71 62 4.0 7.0 0.00 0.00 0.00 82 1016.7
20260906121803 71 59 3.0 7.0 0.00 0.00 0.00 82 1016.8
20260906120903 71 61 2.0 5.0 0.00 0.00 0.00 81 1016.6
20260906120024 71 58 2.0 5.0 0.00 0.00 0.00 81 1016.4
20260906115424 71 59 2.0 4.0 0.00 0.00 0.00 81 1016.4
20260906114524 71 59 2.0 4.0 0.00 0.00 0.00 81 1016.3
20260906113603 71 67 2.0 4.0 0.00 0.00 0.00 81 1016.2
20260906112703 72 61 1.0 4.0 0.00 0.00 0.00 80 1016.1
20260906111803 72 61 1.0 3.0 0.00 0.00 0.00 80 1016.0
20260906110903 72 61 0.0 3.0 0.00 0.00 0.00 80 1016.0
20260906110003 72 0 0.0 0.0 0.00 0.00 0.00 80 1016.0
20260906105403 72 126 0.0 1.0 0.00 0.00 0.00 80 1016.0
20260906104503 72 126 0.0 1.0 0.00 0.00 0.00 79 1015.9
20260906103603 72 102 0.0 2.0 0.00 0.00 0.00 79 1015.8
20260906102724 73 93 1.0 3.0 0.00 0.00 0.00 80 1015.6
20260906101803 73 87 3.0 7.0 0.00 0.00 0.00 80 1015.5
20260906100903 73 88 6.0 11.0 0.00 0.00 0.00 80 1015.4
20260906100003 73 90 4.0 10.0 0.00 0.00 0.00 80 1015.2
20260906095403 73 84 4.0 9.0 0.00 0.00 0.00 80 1015.1
20260906094504 73 87 4.0 11.0 0.00 0.00 0.00 80 1014.9
20260906093603 73 85 3.0 8.0 0.00 0.00 0.00 80 1014.9
20260906092703 73 88 4.0 8.0 0.00 0.00 0.00 80 1014.7
20260906091804 73 82 4.0 9.0 0.00 0.00 0.00 80 1014.7
20260906090903 73 87 4.0 9.0 0.00 0.00 0.00 80 1014.8
20260906090003 74 91 4.0 9.0 0.00 0.00 0.00 80 1014.6
20260906085403 74 88 5.0 9.0 0.00 0.00 0.00 80 1014.6
20260906084503 74 83 4.0 9.0 0.00 0.00 0.00 79 1014.8
20260906083603 74 89 4.0 9.0 0.00 0.00 0.00 79 1014.8
20260906082703 74 89 4.0 9.0 0.00 0.00 0.00 79 1014.8
20260906081803 74 89 5.0 10.0 0.00 0.00 0.00 79 1014.7
20260906080903 74 91 5.0 11.0 0.00 0.00 0.00 79 1014.8
20260906080004 74 92 5.0 11.0 0.00 0.00 0.00 79 1014.8
20260906075403 74 90 5.0 10.0 0.00 0.00 0.00 79 1014.8
20260906074524 74 85 4.0 8.0 0.00 0.00 0.00 79 1014.8
20260906073604 74 89 4.0 10.0 0.00 0.00 0.00 79 1014.8
20260906072703 74 72 4.0 12.0 0.00 0.00 0.00 78 1014.9
20260906071803 75 65 4.0 9.0 0.00 0.00 0.00 78 1014.9
20260906070903 75 70 4.0 9.0 0.00 0.00 0.00 78 1015.0
20260906070024 75 83 4.0 9.0 0.00 0.00 0.00 78 1015.0
20260906065424 75 77 4.0 9.0 0.00 0.00 0.00 78 1015.0
20260906064524 75 62 4.0 9.0 0.00 0.00 0.00 78 1015.2
20260906063603 75 61 3.0 9.0 0.00 0.00 0.00 79 1015.2
20260906062703 75 70 2.0 5.0 0.00 0.00 0.00 79 1015.2
20260906061803 75 74 1.0 4.0 0.00 0.00 0.00 79 1015.2
20260906060903 75 78 2.0 3.0 0.00 0.00 0.00 79 1015.1
20260906060003 75 77 2.0 6.0 0.00 0.00 0.00 79 1015.3
20260906055403 75 75 2.0 6.0 0.00 0.00 0.00 79 1015.3
20260906054503 75 68 2.0 5.0 0.00 0.00 0.00 79 1015.2
20260906053624 75 65 2.0 5.0 0.00 0.00 0.00 79 1015.3
20260906052703 76 64 2.0 5.0 0.00 0.00 0.00 79 1015.2
20260906051824 76 59 2.0 5.0 0.00 0.00 0.00 78 1015.1
20260906050903 76 53 2.0 4.0 0.00 0.00 0.00 78 1015.1
20260906050025 76 68 2.0 6.0 0.00 0.00 0.00 78 1014.9
20260906045403 76 73 2.0 6.0 0.00 0.00 0.00 78 1014.9
20260906044503 76 77 2.0 6.0 0.00 0.00 0.00 78 1014.8
20260906043625 77 83 3.0 7.0 0.00 0.00 0.00 78 1014.6
20260906042724 77 68 3.0 9.0 0.00 0.00 0.00 77 1014.5
20260906041803 77 65 4.0 8.0 0.00 0.00 0.00 77 1014.3
20260906040903 77 74 4.0 9.0 0.00 0.00 0.00 77 1014.3
20260906040003 77 71 4.0 9.0 0.00 0.00 0.00 77 1014.3
20260906035403 77 70 4.0 8.0 0.00 0.00 0.00 77 1014.2
20260906034503 78 66 4.0 8.0 0.00 0.00 0.00 77 1014.2
20260906033603 78 74 4.0 8.0 0.00 0.00 0.00 77 1014.0
20260906032703 78 80 5.0 9.0 0.00 0.00 0.00 77 1013.9
20260906031824 78 83 5.0 10.0 0.00 0.00 0.00 77 1013.8
20260906030903 78 87 5.0 9.0 0.00 0.00 0.00 78 1013.7
20260906030004 78 91 3.0 8.0 0.00 0.00 0.00 78 1013.6
20260906025403 79 90 3.0 7.0 0.00 0.00 0.00 78 1013.7
20260906024524 79 81 3.0 9.0 0.00 0.00 0.00 78 1013.7
20260906023603 79 71 4.0 8.0 0.00 0.00 0.00 78 1013.7
20260906022703 79 62 3.0 8.0 0.00 0.00 0.00 78 1013.6
20260906021803 79 61 2.0 5.0 0.00 0.00 0.00 78 1013.6
20260906020903 80 51 1.0 4.0 0.00 0.00 0.00 77 1013.5
20260906020003 80 59 2.0 4.0 0.00 0.00 0.00 77 1013.4
20260906015403 80 60 2.0 4.0 0.00 0.00 0.00 77 1013.3
20260906014524 80 59 2.0 5.0 0.00 0.00 0.00 77 1013.1
20260906013603 81 54 2.0 6.0 0.00 0.00 0.00 76 1012.9
20260906012703 81 59 4.0 8.0 0.00 0.00 0.00 76 1012.8
20260906011803 82 59 4.0 10.0 0.00 0.00 0.00 76 1012.6
20260906010903 82 60 4.0 8.0 0.00 0.00 0.00 76 1012.5
20260906010003 83 59 4.0 9.0 0.00 0.00 0.00 75 1012.5
20260906005403 83 59 4.0 10.0 0.00 0.00 0.00 75 1012.5
20260906004503 84 56 3.0 13.0 0.00 0.00 0.00 74 1012.6
20260906003603 85 53 4.0 9.0 0.00 0.00 0.00 73 1012.4
20260906002703 86 57 4.0 10.0 0.00 0.00 0.00 72 1012.4
20260906001803 86 62 4.0 9.0 0.00 0.00 0.00 71 1012.4
20260906000903 87 71 3.0 5.0 0.00 0.00 0.00 70 1012.3
20260906000024 87 58 3.0 5.0 0.00 0.00 0.00 69 1012.3
20260905235403 88 61 4.0 7.0 0.00 0.00 0.00 68 1012.2
20260905234504 88 64 4.0 8.0 0.00 0.00 0.00 67 1012.1
20260905233603 89 56 3.0 10.0 0.00 0.00 0.00 67 1012.2
20260905232703 89 59 1.0 4.0 0.00 0.00 0.00 67 1012.2
20260905231803 90 63 2.0 5.0 0.00 0.00 0.00 67 1012.1
20260905230924 90 62 2.0 5.0 0.00 0.00 0.00 67 1012.0
20260905230004 90 62 3.0 8.0 0.00 0.00 0.00 67 1012.0
20260905225403 90 65 5.0 10.0 0.00 0.00 0.00 65 1011.9
20260905224524 91 59 3.0 10.0 0.00 0.00 0.00 64 1011.9
20260905223603 92 52 1.0 4.0 0.00 0.00 0.00 64 1011.8
20260905222724 92 50 1.0 6.0 0.00 0.00 0.00 63 1011.8
20260905221803 92 42 1.0 4.0 0.00 0.00 0.00 62 1011.9
20260905220903 92 65 2.0 9.0 0.00 0.00 0.00 63 1011.9
20260905220003 92 20 2.0 6.0 0.00 0.00 0.00 63 1011.8
20260905215403 92 45 2.0 6.0 0.00 0.00 0.00 62 1011.7
20260905214503 92 47 1.0 4.0 0.00 0.00 0.00 62 1011.9
20260905213603 92 44 1.0 4.0 0.00 0.00 0.00 65 1011.9
20260905212703 91 48 1.0 5.0 0.00 0.00 0.00 67 1011.9
20260905211803 91 41 2.0 6.0 0.00 0.00 0.00 65 1012.0
20260905210925 92 37 1.0 7.0 0.00 0.00 0.00 65 1012.1
20260905210004 92 21 1.0 5.0 0.00 0.00 0.00 64 1012.2
20260905205424 92 23 1.0 4.0 0.00 0.00 0.00 66 1012.2
20260905204503 92 2 0.0 3.0 0.00 0.00 0.00 64 1012.3
20260905203603 92 56 2.0 7.0 0.00 0.00 0.00 64 1012.3
20260905202703 92 28 1.0 3.0 0.00 0.00 0.00 64 1012.3
20260905201803 92 4 0.0 3.0 0.00 0.00 0.00 64 1012.5
20260905200903 92 1 1.0 3.0 0.00 0.00 0.00 63 1012.5
20260905200003 91 6 1.0 3.0 0.00 0.00 0.00 65 1012.5
20260905195403 92 3 0.0 3.0 0.00 0.00 0.00 64 1012.6
20260905194503 92 358 1.0 3.0 0.00 0.00 0.00 65 1012.7
20260905193603 92 47 1.0 3.0 0.00 0.00 0.00 64 1012.6
20260905192724 92 6 1.0 3.0 0.00 0.00 0.00 63 1012.7
20260905191803 92 11 1.0 3.0 0.00 0.00 0.00 64 1012.7
20260905190903 92 45 1.0 3.0 0.00 0.00 0.00 64 1012.9
20260905190003 92 41 1.0 3.0 0.00 0.00 0.00 63 1013.0
20260905185424 92 61 2.0 6.0 0.00 0.00 0.00 63 1013.0
20260905184503 93 62 1.0 4.0 0.00 0.00 0.00 61 1012.9
20260905183603 93 39 1.0 3.0 0.00 0.00 0.00 61 1013.0
20260905182703 93 5 1.0 3.0 0.00 0.00 0.00 61 1013.0
20260905181824 93 360 1.0 3.0 0.00 0.00 0.00 62 1013.0
20260905180903 92 358 2.0 4.0 0.00 0.00 0.00 60 1013.0
20260905180003 92 38 2.0 5.0 0.00 0.00 0.00 62 1013.1
20260905175404 92 42 2.0 5.0 0.00 0.00 0.00 62 1013.1
20260905174503 92 2 2.0 5.0 0.00 0.00 0.00 61 1013.1
20260905173624 92 357 2.0 5.0 0.00 0.00 0.00 61 1013.1
20260905172703 92 28 1.0 5.0 0.00 0.00 0.00 63 1013.3
20260905171803 92 29 2.0 6.0 0.00 0.00 0.00 63 1013.3
20260905170904 92 347 2.0 4.0 0.00 0.00 0.00 64 1013.4
20260905170003 91 315 1.0 4.0 0.00 0.00 0.00 62 1013.5
20260905165403 91 328 2.0 4.0 0.00 0.00 0.00 63 1013.5
20260905164524 91 333 1.0 5.0 0.00 0.00 0.00 62 1013.5
20260905163603 91 341 1.0 5.0 0.00 0.00 0.00 64 1013.5
20260905162703 91 335 2.0 4.0 0.00 0.00 0.00 63 1013.6
20260905161824 90 342 1.0 4.0 0.00 0.00 0.00 64 1013.6
20260905160903 90 322 2.0 7.0 0.00 0.00 0.00 64 1013.5
20260905160024 90 319 2.0 5.0 0.00 0.00 0.00 62 1013.5
20260905155403 90 321 2.0 5.0 0.00 0.00 0.00 63 1013.4
20260905154524 90 310 2.0 5.0 0.00 0.00 0.00 63 1013.3
20260905153625 90 289 2.0 6.0 0.00 0.00 0.00 62 1013.2
20260905152703 89 299 2.0 7.0 0.00 0.00 0.00 61 1013.1
20260905151803 89 300 3.0 8.0 0.00 0.00 0.00 63 1013.1
20260905150903 89 306 1.0 5.0 0.00 0.00 0.00 63 1012.9
20260905150003 89 290 2.0 6.0 0.00 0.00 0.00 63 1012.9
20260905145424 89 294 2.0 6.0 0.00 0.00 0.00 63 1013.0
20260905144503 88 292 2.0 6.0 0.00 0.00 0.00 63 1012.9